Location: Sevilla
(37.3933°N, 5.9839°W)
Time: 04:55:44
(UTC+02:00)

Transit 2A - Pass Details

Date: 25 June 2024
Orbit: 591 x 960 km, 66.7° (Epoch: 15 July)

Event Time Altitude Azimuth Distance (km) Brightness Sun altitude
Rises 00:51:16 0° 341° (NNW) 3,547 10.8 -25.2°
Reaches altitude 10° 00:54:07 10° 352° (N) 2,641 9.7 -25.4°
Maximum altitude 00:59:29 30° 52° (NE) 1,656 7.8 -25.9°
Enters shadow 01:01:48 24° 86° (E) 1,887 7.8 -26.0°
Drops below altitude 10° 01:04:56 10° 111° (ESE) 2,687 - -26.3°
Sets 01:07:50 0° 122° (ESE) 3,619 - -26.5°
